GFSNW_700_spd_021.txt.gz
Wind_Speed
29 30 36 35 33 17 17 17 23 21 19 10 5 9 16 18 16 17 10 9 10 18 22 13 15 8 4 12 10 24 13 6 10 16 5 6 17 20 17 5 5 12 9 21
25 27 30 26 25 27 24 25 32 20 13 10 19 25 23 20 16 14 11 9 2 18 19 10 11 9 9 11 12 21 19 8 3 2 3 13 13 15 19 20 25 29 8 16
22 22 23 19 21 21 20 27 20 17 17 14 13 14 15 17 15 16 15 15 22 22 9 6 13 12 11 14 15 12 12 9 7 7 4 5 10 20 22 23 21 30 37 52
24 16 16 13 16 18 13 15 11 12 12 15 19 22 18 14 15 13 14 18 13 13 8 10 11 11 11 16 21 15 14 10 14 17 18 20 22 23 24 29 35 30 45 42
28 17 10 9 8 3 5 5 7 13 15 13 12 9 12 13 10 10 10 14 13 10 10 3 8 7 10 7 18 20 18 9 10 16 1 3 13 14 14 19 25 31 34 39
24 24 15 7 3 5 5 8 1 12 16 16 11 7 7 8 7 6 5 7 8 9 8 8 8 8 8 5 8 11 12 5 7 5 8 17 7 0 6 10 11 17 22 24
21 21 22 17 9 3 3 6 9 10 20 20 6 4 5 5 4 3 4 6 6 6 6 7 7 5 10 10 8 9 8 8 6 9 9 1 4 9 8 12 7 11 17 24
18 21 21 20 22 14 7 5 8 12 15 17 11 11 10 11 10 6 3 4 6 6 5 5 4 3 3 7 13 14 12 9 5 3 7 14 4 5 13 16 6 14 17 20
15 17 20 21 20 22 17 12 10 16 16 20 15 13 13 13 10 10 9 6 3 6 7 6 5 5 5 4 4 11 13 13 13 3 3 3 2 9 14 17 5 20 20 16
15 17 18 19 22 25 22 16 17 17 23 20 20 15 16 11 12 8 11 8 7 7 9 8 6 5 4 4 4 9 12 17 19 15 7 11 5 8 14 5 7 21 19 11
16 19 21 20 21 22 27 24 18 23 27 20 24 23 20 21 17 12 7 8 10 8 9 7 7 6 5 5 7 5 9 10 9 12 7 9 2 14 13 20 18 19 19 7
19 21 25 25 26 25 25 27 24 22 30 22 31 31 26 21 22 16 12 8 7 7 8 8 6 6 6 6 4 7 9 11 6 10 5 3 11 16 17 19 16 16 14 5
22 25 28 29 33 32 26 21 22 20 23 29 32 33 31 27 24 22 16 15 10 8 9 8 9 5 5 5 7 12 13 14 18 14 9 2 10 14 13 18 13 14 7 5
25 29 31 33 34 31 28 22 21 17 18 23 17 29 32 34 27 24 22 19 13 11 9 10 10 7 9 10 10 17 17 16 14 19 17 15 8 11 18 13 10 10 6 7
27 31 34 34 33 30 25 22 20 18 15 13 27 26 24 25 26 28 24 22 16 13 11 12 12 13 14 17 20 20 10 15 24 25 12 10 11 13 14 11 9 7 6 7
28 32 33 32 29 17 18 18 15 17 20 25 9 19 24 24 25 25 24 21 16 15 13 14 14 14 12 11 17 24 17 7 9 19 22 24 21 17 14 12 9 6 4 5
30 32 30 25 21 10 12 12 3 5 8 20 8 16 22 22 23 24 20 16 16 14 14 16 16 15 14 21 25 15 10 17 15 19 21 22 20 19 15 12 9 6 6 5
30 29 22 17 12 6 0 5 11 10 15 13 1 14 21 22 22 22 19 16 15 14 14 14 11 11 10 8 12 7 6 9 17 21 24 23 20 19 17 14 11 10 7 5
25 19 11 11 13 13 12 10 12 9 6 3 7 15 17 20 20 19 15 11 8 8 8 7 6 7 5 10 10 9 13 12 11 20 23 23 21 21 20 19 14 13 12 7
14 9 15 14 18 21 18 11 5 3 2 4 10 10 12 21 15 14 10 9 9 5 7 5 7 3 4 6 9 15 13 13 14 14 11 11 12 16 18 16 15 16 14 15
3 10 11 11 12 12 9 4 2 2 3 9 12 8 18 18 14 16 9 6 6 5 5 7 5 7 10 11 17 16 15 12 9 13 10 8 8 10 16 17 15 15 13 8
6 9 3 8 2 1 2 5 4 4 3 11 13 12 13 15 14 7 8 5 6 4 7 5 4 5 8 13 16 13 7 11 16 14 13 6 5 4 9 14 17 15 14 15
9 12 7 5 4 4 5 5 6 6 10 11 14 13 13 12 8 4 5 4 4 3 4 3 4 3 8 12 12 9 3 14 6 14 13 12 9 13 14 19 18 15 18 15
7 12 7 6 5 6 6 9 9 8 11 11 12 13 11 11 9 5 3 5 4 4 4 5 3 1 4 11 15 12 1 13 5 4 1 4 3 14 7 18 19 17 16 12
7 6 7 10 9 6 7 8 10 9 11 10 10 11 8 10 6 6 6 4 4 5 5 5 3 1 3 7 11 16 12 4 10 3 3 3 7 8 10 9 9 10 10 14
9 10 9 9 10 8 5 5 9 11 11 11 14 10 5 8 5 6 7 4 5 7 9 3 2 2 6 10 12 13 13 13 9 9 4 5 7 4 5 4 2 5 10 13
7 9 12 16 13 10 9 6 9 13 15 14 10 8 8 6 6 8 7 8 6 10 9 7 6 9 11 13 13 14 14 13 12 10 8 10 13 12 9 7 8 8 12 14

GFSNW_700_spd_024.txt.gz
Wind_Speed
22 23 22 24 29 29 25 22 24 18 17 22 27 23 26 23 19 15 10 11 10 20 19 14 14 11 4 8 16 23 12 5 7 12 3 5 14 19 15 6 4 6 5 13
17 12 18 20 23 27 22 16 20 20 22 27 28 25 21 17 13 10 7 7 9 16 17 12 9 10 6 13 13 23 15 6 4 2 9 18 16 20 25 21 19 15 4 11
13 9 8 11 12 13 13 17 15 17 15 16 19 19 17 18 14 12 11 12 14 22 11 8 13 12 10 13 12 17 12 9 6 6 2 5 15 15 18 20 15 17 30 42
18 7 4 5 5 5 6 6 6 9 13 14 12 12 15 16 17 17 16 19 19 14 9 11 16 15 13 15 15 14 12 10 14 16 16 17 18 19 19 26 31 29 38 37
16 16 6 5 5 8 8 4 4 10 14 15 13 10 10 11 9 11 14 14 13 6 12 5 14 13 14 11 20 18 18 9 10 15 7 11 15 16 16 20 23 32 33 33
13 16 14 8 6 8 7 7 3 11 11 13 11 9 7 7 8 8 12 10 10 7 7 5 6 6 10 6 8 22 20 9 6 4 4 13 14 4 9 12 15 16 19 21
15 13 14 14 12 7 8 8 8 9 15 15 13 11 7 7 4 5 7 8 9 10 8 8 5 4 6 7 8 9 9 11 8 7 7 2 5 2 3 8 7 9 14 20
13 13 17 14 14 13 9 9 12 13 16 22 16 13 11 11 9 7 5 8 9 9 9 9 7 7 6 10 13 13 11 11 6 3 5 13 7 3 4 10 7 4 17 20
16 15 15 16 15 15 15 13 9 17 18 24 24 17 15 15 12 14 10 9 9 9 10 10 7 6 7 7 5 15 13 13 12 5 3 4 5 4 10 13 9 6 22 19
16 16 18 20 18 17 21 20 19 17 20 22 27 26 21 18 17 15 15 15 11 11 13 12 8 6 8 6 7 10 15 17 20 17 6 10 4 2 8 3 8 23 18 17
16 17 18 19 21 23 21 26 29 25 26 19 28 30 26 24 20 17 13 15 16 14 12 11 7 7 10 7 9 8 13 11 10 13 7 10 5 6 10 15 18 19 17 16
18 20 21 22 21 24 28 29 31 34 35 25 27 37 35 30 28 25 18 15 9 13 11 10 9 8 9 10 6 13 10 11 5 10 4 6 11 18 14 17 20 17 16 10
20 22 25 27 28 30 33 32 30 33 37 36 33 32 35 35 34 28 26 19 13 12 11 8 9 7 9 9 12 12 13 15 18 15 11 10 9 12 15 15 19 14 13 7
20 22 26 30 34 35 33 31 25 26 30 34 27 24 49 42 33 31 27 21 20 13 11 11 10 8 8 10 11 13 13 16 17 22 24 20 17 14 10 13 13 13 10 7
21 24 28 33 35 32 30 23 15 15 22 21 20 24 45 42 35 29 28 26 18 18 12 11 9 11 12 13 17 15 4 8 13 22 23 23 19 17 11 12 12 12 10 7
22 26 32 34 30 26 20 15 11 12 15 21 21 19 33 33 38 30 28 25 22 17 13 11 14 14 10 10 11 17 12 13 16 22 20 27 26 21 16 15 12 11 9 7
21 27 30 26 19 13 11 6 3 7 5 9 7 4 28 33 37 33 28 26 21 18 17 17 16 13 13 20 23 13 9 11 13 24 21 22 21 21 21 19 14 11 9 6
21 23 15 9 12 10 7 7 5 3 3 5 7 1 31 27 30 29 27 24 19 18 16 15 13 13 11 10 6 13 15 13 8 10 21 20 21 20 20 18 16 13 13 13
17 9 3 7 11 16 18 15 9 4 2 5 6 8 24 24 24 23 24 21 21 15 15 14 10 11 10 9 7 6 8 12 12 14 21 19 20 22 22 23 19 18 17 17
9 1 1 5 8 11 14 10 4 6 8 8 11 11 19 22 26 22 20 17 12 8 9 8 13 15 16 15 14 15 15 14 17 15 15 20 20 18 19 19 20 19 18 17
6 6 3 0 8 4 4 2 3 4 5 7 10 7 21 18 22 21 10 11 7 5 7 8 6 7 15 14 15 20 19 13 12 11 11 14 12 11 11 13 17 17 17 17
8 12 7 8 8 4 3 1 2 2 1 8 9 14 14 15 12 13 7 6 7 4 8 6 5 10 7 7 12 15 13 10 12 20 14 14 12 10 7 5 11 17 18 16
10 12 9 7 5 5 3 3 3 3 3 12 12 12 14 14 10 5 7 5 5 5 6 5 7 6 2 4 10 12 5 10 19 12 13 15 13 13 16 19 15 20 22 20
9 6 7 6 6 6 7 10 7 7 6 8 12 12 9 9 8 4 3 6 5 5 6 7 11 6 4 2 9 14 9 9 17 2 5 9 9 7 13 16 20 22 23 22
8 6 6 12 13 9 8 10 10 9 9 9 7 13 11 8 5 5 6 5 6 7 8 11 10 8 6 2 6 8 9 10 13 15 1 3 5 8 11 2 11 18 21 21
11 9 9 8 9 10 10 8 8 13 13 13 12 10 6 8 6 6 7 5 6 7 12 11 9 7 4 2 5 7 8 8 9 10 5 6 11 12 8 4 7 5 11 14
11 11 11 13 16 16 10 8 11 15 14 14 11 8 8 6 6 8 8 10 5 8 13 11 10 7 6 8 8 8 8 9 10 9 8 7 7 7 11 10 6 3 8 8

GFSNW_700_spd_030.txt.gz
Wind_Speed
18 13 11 12 12 15 14 12 10 8 11 10 18 16 19 22 16 12 8 3 8 16 19 17 21 15 11 17 17 13 10 5 4 11 7 9 13 12 13 4 5 4 2 6
19 15 12 10 12 10 7 8 7 6 6 13 17 14 13 11 8 8 6 5 3 10 15 9 18 17 17 8 22 12 11 5 4 3 8 11 12 18 17 13 6 8 4 4
20 17 13 12 9 8 7 5 3 4 5 7 9 11 9 8 4 5 8 7 9 11 13 11 15 16 15 15 13 19 11 9 5 6 1 3 9 15 19 21 9 9 19 20
20 18 15 12 9 13 13 8 5 9 7 3 1 1 5 2 1 4 2 8 6 13 11 7 9 13 9 10 11 21 13 7 9 11 11 13 11 9 14 24 26 15 13 20
23 18 15 13 11 10 15 12 9 7 5 9 8 3 3 2 2 5 1 8 15 9 5 5 5 14 12 9 12 15 14 7 4 7 11 14 19 18 20 21 21 26 24 17
23 17 15 14 9 9 10 13 12 11 11 8 7 6 5 3 1 2 8 9 5 1 5 4 7 8 8 3 5 15 14 9 4 3 4 7 14 10 19 23 22 18 21 9
23 19 12 13 9 8 9 10 10 12 13 14 13 11 10 8 6 5 9 8 7 3 3 3 6 6 9 7 6 10 9 9 8 6 8 1 2 4 3 1 5 9 7 7
22 19 10 12 10 9 10 9 9 10 14 15 16 17 15 14 12 8 11 11 9 7 7 5 4 5 6 7 6 7 10 11 4 3 6 13 9 8 2 1 4 2 5 10
20 19 19 10 14 11 11 12 12 12 12 8 15 18 22 18 16 15 12 12 12 11 12 10 6 7 6 7 6 14 13 13 10 3 3 3 1 6 2 2 6 4 8 11
16 18 19 20 14 12 12 13 15 15 15 14 13 15 22 25 21 19 16 16 13 14 15 15 9 8 8 7 9 11 17 15 16 11 6 9 7 8 4 2 1 10 10 13
11 17 21 22 25 19 17 18 21 23 25 22 24 23 21 25 29 26 20 18 21 18 17 13 11 11 12 10 10 9 12 12 11 11 7 10 5 9 5 4 9 11 12 13
12 15 18 21 21 18 22 22 25 32 35 32 34 33 27 26 31 30 29 23 13 19 14 16 10 11 9 13 7 17 11 12 7 10 5 5 7 8 7 7 10 10 14 13
16 17 19 20 21 20 22 26 29 34 41 45 37 27 29 41 37 39 37 32 24 18 22 15 15 9 11 11 16 14 16 14 20 14 13 14 14 17 14 13 12 11 15 14
19 18 18 21 21 21 28 31 31 29 31 32 12 16 22 28 35 47 48 33 32 22 19 20 18 14 11 11 14 13 16 16 18 23 22 21 21 19 19 18 18 15 14 14
20 18 21 18 22 27 30 26 20 18 17 25 22 18 15 28 33 45 49 41 29 33 22 22 21 19 14 14 16 19 15 18 20 25 24 24 22 22 24 22 19 18 16 15
16 19 18 22 26 23 20 9 6 8 12 21 29 21 11 19 17 29 46 41 37 26 24 23 19 15 11 9 13 12 12 13 13 20 24 27 25 22 22 25 26 21 19 17
16 16 19 20 15 15 8 6 10 13 14 19 19 12 10 10 16 23 40 45 37 26 21 28 20 14 13 18 23 17 16 19 19 19 19 15 11 14 16 19 20 22 20 17
17 14 17 11 12 10 9 11 12 16 15 11 12 16 10 7 10 23 39 37 35 20 16 20 17 14 14 14 17 14 14 14 16 18 18 16 15 16 14 17 17 18 17 16
16 14 13 7 5 11 13 14 14 13 10 8 12 13 6 5 18 25 21 21 27 11 16 15 13 16 13 9 12 13 14 13 10 12 17 22 21 19 17 18 18 20 19 20
11 13 9 7 6 11 16 12 8 10 11 12 17 11 5 3 8 15 10 18 11 5 12 7 18 25 22 20 21 20 21 17 16 18 17 19 19 19 19 20 21 18 19 20
11 11 9 9 11 14 8 3 4 7 6 8 10 11 4 6 10 14 8 7 6 4 6 13 7 20 19 18 20 21 17 14 18 15 11 14 16 15 16 16 18 19 19 20
12 11 13 9 8 5 3 2 1 2 4 7 4 3 1 12 9 6 11 6 7 3 7 7 8 19 13 10 8 3 8 13 8 15 19 21 19 22 18 15 14 13 14 14
15 10 7 4 5 5 3 0 1 2 3 5 3 4 8 9 18 6 6 6 5 4 7 5 13 14 13 10 5 1 3 2 8 22 14 10 9 8 13 12 12 14 17 17
12 6 5 4 4 4 4 5 6 8 7 8 9 7 2 4 7 4 3 5 5 4 6 8 8 9 13 12 7 2 1 4 8 17 20 12 3 3 5 1 9 15 22 27
10 6 4 6 6 10 12 11 12 13 12 11 9 10 6 3 3 4 5 4 5 6 7 9 8 11 15 11 6 3 2 3 4 6 11 10 17 16 14 15 15 18 17 13
7 6 8 10 13 12 13 14 15 11 11 10 9 6 4 5 4 5 5 4 5 3 7 7 10 15 13 11 8 5 4 1 3 6 9 11 12 11 9 8 15 22 21 11
8 14 15 17 17 19 21 17 15 12 11 12 7 6 7 5 6 7 7 8 9 10 10 6 15 13 13 12 11 9 8 8 9 10 13 14 15 14 14 14 10 8 10 16

GFSNW_700_spd_033.txt.gz
Wind_Speed
23 16 19 15 13 15 14 14 10 12 13 5 15 20 18 14 11 7 2 3 4 9 12 10 18 12 4 12 9 8 7 5 7 11 6 10 13 13 13 5 5 5 2 3
24 16 16 18 12 9 9 8 10 11 12 8 10 8 8 4 4 2 1 2 2 5 10 7 12 12 12 6 13 6 9 5 7 3 5 10 12 17 16 15 7 8 4 2
28 21 16 14 15 10 8 8 6 6 5 6 8 5 3 2 3 6 7 5 6 3 8 9 6 11 11 10 5 15 8 6 3 3 0 2 7 13 18 20 10 7 16 7
28 27 17 13 13 11 13 11 6 8 7 5 3 2 2 2 2 5 5 5 4 6 8 9 7 12 12 11 13 13 15 5 7 8 10 10 9 8 12 24 26 14 11 14
30 30 22 13 11 10 11 12 12 9 9 6 7 4 3 4 3 5 3 5 4 7 4 4 2 7 10 7 9 10 19 6 4 6 10 14 18 17 19 18 20 28 25 15
27 24 19 14 10 8 9 8 12 12 11 10 7 7 5 3 2 1 7 11 8 2 3 2 4 8 7 3 2 10 13 11 4 4 4 8 15 16 21 23 23 18 21 3
27 21 14 12 9 9 7 8 7 9 11 11 13 10 8 8 6 5 8 6 4 2 3 2 5 8 4 8 5 7 11 11 6 4 6 2 3 4 3 2 6 12 8 3
25 19 11 12 15 9 10 8 9 7 5 11 14 15 14 12 11 9 11 10 7 5 6 5 5 5 5 7 7 8 14 12 5 3 5 11 9 8 4 5 5 5 6 3
20 18 12 8 12 15 11 11 10 11 8 6 6 13 17 18 17 16 13 13 13 12 10 8 5 7 6 7 6 14 13 14 12 4 3 4 1 9 8 6 6 3 1 5
14 13 12 12 11 17 15 11 10 12 14 11 10 10 11 19 21 19 18 17 16 16 16 12 9 8 8 7 8 12 17 16 18 14 6 8 9 9 4 5 6 3 5 7
10 11 12 14 17 17 17 22 20 19 19 18 19 20 21 20 20 23 21 18 23 20 18 15 12 12 13 11 10 9 14 12 11 13 8 10 10 11 11 7 2 3 5 8
13 14 15 14 17 20 20 18 17 22 25 20 19 23 27 25 23 28 30 28 17 21 15 17 13 14 10 15 8 16 12 13 7 10 3 4 8 10 10 8 5 5 5 8
18 19 17 16 17 19 24 22 21 24 31 31 17 14 17 28 39 36 38 34 28 24 26 18 17 12 15 15 17 15 18 16 18 12 13 10 11 12 16 11 11 12 10 9
20 21 18 18 19 19 21 25 25 24 27 25 8 14 17 20 24 35 45 40 32 26 30 28 20 17 14 14 14 14 16 15 18 22 19 14 15 19 19 19 21 19 15 14
20 19 18 18 17 21 19 19 16 10 12 20 16 14 13 21 30 33 37 44 44 38 24 30 27 24 17 14 16 18 16 17 18 21 18 16 18 19 23 24 25 24 22 19
19 20 19 15 19 16 14 7 8 10 15 20 19 17 14 22 22 22 23 33 49 47 34 16 27 24 21 12 21 19 16 18 19 19 17 18 21 22 23 24 25 26 27 21
19 16 16 16 12 10 8 8 11 14 16 17 13 8 14 12 9 12 18 27 44 52 30 33 15 22 20 22 22 15 12 11 13 18 21 21 17 16 11 15 16 20 22 24
18 16 12 15 7 6 8 11 13 14 15 11 8 9 14 13 6 1 10 23 35 13 22 22 24 21 20 18 17 12 12 14 16 15 15 15 11 15 16 18 16 18 19 19
16 13 12 11 6 7 13 17 9 8 9 8 11 13 11 9 8 7 11 9 27 4 19 22 22 27 17 11 10 8 8 10 11 11 13 18 21 21 20 18 20 18 20 20
17 12 11 8 8 11 15 11 5 5 7 10 17 11 4 4 7 12 15 21 14 8 16 11 14 18 23 18 17 15 14 15 14 15 18 20 19 16 16 18 17 19 19 19
19 15 8 12 14 13 8 3 4 4 4 8 15 14 4 9 3 5 3 4 6 3 6 11 7 16 15 12 14 18 17 16 13 14 13 16 20 21 20 19 16 17 20 20
19 17 14 10 9 3 2 3 3 3 3 8 10 13 5 2 2 1 1 1 5 4 6 7 6 11 6 7 7 8 8 7 4 6 17 22 21 19 18 22 18 14 14 15
19 12 5 4 3 3 3 2 2 4 7 9 10 9 6 4 8 2 4 4 3 3 5 4 7 9 9 8 8 7 3 4 2 9 18 18 10 8 5 5 13 15 15 16
17 8 4 3 4 6 8 10 10 11 14 13 13 11 7 3 6 4 3 4 4 4 5 6 7 7 9 10 11 7 6 4 0 6 15 17 17 13 12 12 10 6 10 19
15 7 4 4 6 11 15 15 14 16 17 15 12 10 7 6 3 5 4 4 4 5 5 5 7 8 10 12 11 7 6 3 3 1 8 11 15 16 16 13 12 14 18 18
8 6 13 15 15 16 18 18 21 19 16 11 7 5 4 5 4 5 5 3 4 3 6 9 7 7 15 13 11 9 6 5 4 4 7 8 9 9 10 11 12 10 12 16
7 13 14 14 16 17 18 19 19 19 16 10 7 4 5 4 4 6 6 4 5 10 11 10 4 13 14 14 12 11 9 9 9 10 13 15 17 17 17 16 16 14 13 13

GFSNW_700_spd_036.txt.gz
Wind_Speed
26 25 21 17 12 11 12 11 11 13 15 4 3 16 10 10 7 5 5 5 1 4 6 8 9 10 3 11 8 9 9 7 8 13 12 15 17 13 11 6 5 4 1 2
27 25 21 18 15 10 8 9 10 8 13 8 11 11 10 5 4 1 2 3 4 4 7 3 12 9 8 9 9 7 10 6 7 4 8 14 17 22 21 19 9 8 4 4
27 26 26 19 15 12 10 9 6 7 5 4 7 7 5 3 3 4 6 6 3 2 8 6 10 9 8 7 9 11 9 9 6 5 3 7 13 19 22 20 10 8 12 5
30 29 27 17 12 12 10 11 10 8 5 4 3 2 2 4 2 3 5 5 6 6 6 9 6 9 11 10 9 9 12 8 10 8 7 6 6 7 16 26 23 10 7 15
33 28 24 16 10 10 9 9 12 13 10 7 7 7 5 5 3 3 3 6 5 7 6 6 2 5 10 9 12 13 14 7 8 9 11 12 16 18 19 18 20 28 25 21
31 25 21 14 9 8 8 9 8 13 13 11 9 8 7 5 3 1 4 9 7 4 5 4 5 6 9 4 3 8 13 11 5 3 5 8 14 17 24 24 23 19 19 5
25 24 20 12 10 8 6 7 7 6 11 12 13 11 10 9 7 5 8 8 4 2 4 3 6 8 7 8 3 5 8 8 6 3 3 4 5 4 1 8 17 19 16 11
23 21 16 13 10 13 9 6 7 6 5 8 13 14 14 12 11 10 12 10 7 6 6 6 6 7 7 9 7 7 10 9 3 2 5 12 9 9 4 4 4 9 13 14
20 16 12 8 8 12 16 16 13 11 9 6 7 13 16 17 16 15 14 14 13 11 10 7 6 6 6 8 6 13 12 13 9 3 3 3 3 7 11 9 5 10 11 9
15 13 12 12 11 10 14 17 18 17 13 11 11 11 11 14 20 20 20 18 17 16 16 12 9 7 8 7 9 14 16 15 16 13 7 10 8 11 11 7 6 13 7 6
14 15 16 17 16 16 14 11 13 21 24 19 17 18 19 19 18 21 21 18 23 19 18 15 13 11 12 11 10 10 15 12 12 13 8 10 13 17 11 9 10 9 9 3
18 19 19 16 17 17 19 19 19 17 16 20 23 22 19 19 19 24 25 25 17 22 17 21 13 14 10 16 8 19 13 14 9 12 7 6 8 16 16 14 10 7 7 5
19 21 20 20 17 15 16 22 23 22 21 14 16 20 26 29 31 34 34 30 26 27 30 22 20 15 18 17 21 15 20 16 15 13 12 9 9 12 13 14 13 10 10 10
20 20 22 18 19 15 15 18 21 21 22 14 4 5 11 15 19 24 30 35 39 36 29 34 27 21 18 19 19 16 20 16 20 22 18 12 14 18 18 19 20 21 19 17
21 22 19 15 15 18 17 17 12 7 9 14 10 5 6 11 14 18 23 26 36 45 43 25 31 29 22 21 20 23 20 18 19 19 14 14 18 21 24 24 26 27 25 22
21 18 15 13 14 14 12 6 6 11 15 16 7 4 7 11 14 19 24 26 34 40 49 43 11 32 29 18 25 24 18 16 18 21 18 17 18 18 20 23 25 27 27 25
19 17 15 9 11 9 6 8 13 14 15 12 2 6 12 15 12 11 10 14 20 32 42 50 26 21 32 27 23 17 10 10 13 17 16 16 18 21 19 19 18 19 20 23
20 16 15 10 8 6 8 13 16 10 10 7 6 7 12 15 14 6 5 9 15 23 18 39 35 13 33 25 24 21 18 18 18 17 17 18 14 11 13 17 20 20 18 20
19 16 12 9 6 6 12 14 11 5 5 5 12 15 7 13 10 6 6 6 8 12 14 23 23 22 15 16 17 13 13 12 10 11 11 13 14 17 20 21 21 21 20 18
19 15 13 6 9 11 13 11 4 4 2 7 13 17 18 4 5 8 0 0 18 8 18 17 25 22 28 21 16 13 11 10 11 11 14 16 19 20 17 15 17 17 19 21
22 17 11 10 11 13 5 3 3 4 3 8 14 17 18 6 7 9 6 10 5 0 12 10 8 17 22 22 23 22 22 18 15 12 12 16 20 22 23 24 23 21 16 18
25 19 11 7 6 5 4 3 4 4 4 10 14 15 13 5 2 4 4 3 3 1 7 7 5 11 11 18 20 17 16 14 9 4 7 14 17 15 13 13 17 22 20 17
22 16 9 6 5 6 6 9 5 9 11 16 19 16 13 6 5 5 3 3 2 3 5 4 6 5 9 11 12 10 9 9 13 2 8 14 11 8 7 7 5 8 14 16
16 12 8 7 5 7 8 9 12 15 19 20 20 13 8 7 5 4 3 3 3 4 4 5 5 5 7 9 11 11 10 11 9 2 5 7 13 15 16 14 13 14 13 9
12 7 7 13 15 16 17 18 17 17 16 21 18 12 7 8 5 3 4 3 3 4 3 4 5 6 6 10 12 11 11 8 9 5 4 6 11 14 13 15 16 14 12 11
8 7 13 13 11 13 16 18 18 19 18 16 16 8 5 5 4 4 4 3 2 2 6 9 10 6 9 13 12 12 13 11 9 7 6 6 9 12 13 13 13 14 14 14
9 9 12 13 13 15 16 18 19 18 15 13 7 6 5 5 5 4 5 5 7 8 8 10 7 3 14 15 14 14 13 11 10 9 10 12 13 15 17 18 18 17 17 16